Simultaneous Nadir Overpasses (SNOs) Predictions

Prediction of SNOs between AQUA and METOP-A Satellite Orbit:

Table of predicted SNOs for the next 14.0 days since TLE Epoch: 6/26/2021
Index Date (AQUA) Time (AQUA) Lat,Lon (AQUA) SZA (AQUA ) Date (METOP-A) Time (METOP-A) Lat,Lon (METOP-A) SZA (METOP-A ) Distance(km) Time Diff (sec)
1 06/27/2021 22:19:47 -77.51, 8.53 125.20 06/27/2021 22:19:31 -77.52, 8.65 125.20 3.04 16
2 06/27/2021 23:09:15 77.55, 176.01 54.85 06/27/2021 23:10:11 77.52, 176.01 54.81 3.24 56
3 06/30/2021 17:04:26 77.12, -91.13 54.49 06/30/2021 17:03:20 77.08, -94.15 54.70 75.33 66
4 06/30/2021 17:54:00 -77.49, 75.05 125.06 06/30/2021 17:53:52 -77.50, 74.90 125.04 3.42 8
5 06/30/2021 18:43:28 77.53,-117.48 55.00 06/30/2021 18:44:31 77.54,-117.56 54.99 2.19 63
6 07/03/2021 12:38:47 77.43, -25.90 55.09 07/03/2021 12:37:35 77.36, -26.65 55.10 19.56 72
7 07/03/2021 13:28:15 -77.52, 141.35 124.80 07/03/2021 13:28:13 -77.52, 141.34 124.80 1.03 2
8 07/03/2021 14:17:43 77.57, -51.18 55.26 07/03/2021 14:18:52 77.56, -51.13 55.23 1.14 69
9 07/06/2021 08:13:03 77.52, 40.19 55.46 07/06/2021 08:11:53 77.51, 40.33 55.47 3.35 70
10 07/06/2021 09:02:29 -77.52,-152.17 124.53 07/06/2021 09:02:34 -77.54,-152.24 124.51 2.56 5
11 07/06/2021 09:51:59 77.65, 14.91 55.64 07/06/2021 09:53:11 77.67, 15.67 55.58 18.10 72
12 07/09/2021 03:47:16 77.52, 106.63 55.79 07/09/2021 03:46:13 77.53, 106.73 55.81 2.71 63
13 07/09/2021 04:36:43 -77.56, -85.91 124.16 07/09/2021 04:36:54 -77.55, -85.83 124.17 2.30 11



Historial Predications of SNOs between AQUA and METOP-A
